Weather History for KTYR - February, 2013

Change the Weather History Date:

Sunday, February 10, 2013

  Actual Average Record
Temperature  
Mean Temperature 60 °F 49 °F  
Max Temperature 67 °F 59 °F 83 °F (1960)
Min Temperature 53 °F 39 °F 16 °F (1979)
Degree Days  
Heating Degree Days 5 16  
Month to date heating degree days 72 166  
Since 1 July heating degree days 1286 1644  
Cooling Degree Days 0 0  
Month to date cooling degree days 0 0  
Year to date cooling degree days 10 4  
Growing Degree Days 10 (Base 50)    
Moisture  
Dew Point 48 °F    
Average Humidity 59    
Maximum Humidity 93    
Minimum Humidity 24    
Precipitation  
Precipitation 0.39 in 0.14 in 1.39 in (1983)
Month to date precipitation 0.63 1.27  
Year to date precipitation 4.37 4.33  
Snow  
Snow 0.00 in - - ()
Month to date snowfall 0.0  
Since 1 July snowfall 1.0  
Snow Depth 0.00 in    
Sea Level Pressure  
Sea Level Pressure 29.84 in    
Wind  
Wind Speed 9 mph (WSW)    
Max Wind Speed 29 mph    
Max Gust Speed 35 mph    
Visibility 9 miles    
Events Rain , Thunderstorm    
T = Trace of Precipitation, MM = Missing Value Source: NWS Daily Summary

Daily Weather History Graph

Daily Weather History Graph

Search for Another Location

Airport or City:

Trip Planner

Search our weather history database for the weather conditions in past years. The results will help you decide how hot, cold, wet, or windy it might be!

Date:

Astronomy

Feb. 10, 2013 Rise Set
Actual Time 7:08 AM CST 6:03 PM CST
Civil Twilight 6:43 AM CST 6:28 PM CST
Nautical Twilight 6:14 AM CST 6:57 PM CST
Astronomical Twilight 5:45 AM CST 7:26 PM CST
Moon 7:03 AM CST (2/10) 6:49 PM CST (2/10)
Length of Visible Light 11h 45m
Length of Day
10h 54m
New Moon, 0% of the Moon is Illuminated
Feb 10
New Moon
Feb 17
First Quarter
Feb 25
Full
Mar 4
Last Quarter
Mar 11
New

Hourly Weather History & Observations

Time (CST) Temp. Dew Point Humidity Pressure Visibility Wind Dir Wind Speed Gust Speed Precip Events Conditions
12:53 AM 62.1 °F 59.0 °F 90% 29.81 in 8.0 mi SSE 18.4 mph 25.3 mph N/A   Overcast
1:53 AM 63.0 °F 60.1 °F 90% 29.75 in 9.0 mi SSE 19.6 mph 25.3 mph N/A   Overcast
2:53 AM 64.9 °F 61.0 °F 87% 29.76 in 10.0 mi South 16.1 mph 25.3 mph N/A   Overcast
3:53 AM 66.0 °F 62.1 °F 87% 29.75 in 10.0 mi South 20.7 mph 25.3 mph 0.00 in   Overcast
4:05 AM 66.2 °F 62.6 °F 88% 29.77 in 10.0 mi South 19.6 mph 29.9 mph 0.00 in Rain Light Rain
4:12 AM 66.2 °F 62.6 °F 88% 29.77 in 7.0 mi South 21.9 mph 28.8 mph 0.02 in Rain , Thunderstorm Heavy Thunderstorms and Rain
4:19 AM 66.2 °F 62.6 °F 88% 29.75 in 4.0 mi South 23.0 mph - 0.08 in Rain , Thunderstorm Heavy Thunderstorms and Rain
4:53 AM 66.0 °F 61.0 °F 84% 29.70 in 10.0 mi South 16.1 mph 34.5 mph 0.11 in Rain , Thunderstorm Light Thunderstorms and Rain
5:18 AM 64.4 °F 60.8 °F 88% 29.78 in 10.0 mi SW 18.4 mph 26.5 mph 0.00 in Rain Light Rain
5:28 AM 64.4 °F 60.8 °F 88% 29.79 in 9.0 mi SW 12.7 mph 25.3 mph 0.03 in Rain , Thunderstorm Rain
5:51 AM 64.4 °F 60.8 °F 88% 29.80 in 6.0 mi West 8.1 mph 16.1 mph 0.09 in Rain , Thunderstorm Rain
5:53 AM 64.0 °F 60.1 °F 87% 29.80 in 6.0 mi West 10.4 mph - 0.09 in Rain , Thunderstorm Rain
6:20 AM 62.6 °F 57.2 °F 82% 29.81 in 10.0 mi West 15.0 mph 21.9 mph 0.01 in   Mostly Cloudy
6:37 AM 62.6 °F 57.2 °F 82% 29.80 in 10.0 mi West 10.4 mph 19.6 mph 0.02 in Rain , Thunderstorm Rain
6:53 AM 61.0 °F 57.0 °F 87% 29.78 in 6.0 mi West 11.5 mph 16.1 mph 0.06 in Rain , Thunderstorm Thunderstorms and Rain
7:34 AM 57.2 °F 53.6 °F 88% 29.81 in 7.0 mi WNW 9.2 mph - 0.13 in Rain Light Rain
7:53 AM 57.9 °F 54.0 °F 87% 29.81 in 10.0 mi WNW 6.9 mph - 0.13 in   Partly Cloudy
8:53 AM 59.0 °F 54.0 °F 83% 29.86 in 10.0 mi West 6.9 mph - N/A   Clear
9:53 AM 61.0 °F 48.0 °F 62% 29.89 in 10.0 mi WNW 9.2 mph - N/A   Clear
10:53 AM 63.0 °F 34.0 °F 34% 29.89 in 10.0 mi WNW 13.8 mph - N/A   Clear
11:53 AM 64.0 °F 33.1 °F 31% 29.86 in 10.0 mi West 9.2 mph - N/A   Clear
12:53 PM 66.0 °F 33.1 °F 29% 29.87 in 10.0 mi Variable 4.6 mph - N/A   Clear
1:53 PM 64.9 °F 27.0 °F 24% 29.86 in 10.0 mi WSW 11.5 mph - N/A   Clear
2:53 PM 64.9 °F 26.1 °F 23% 29.84 in 10.0 mi West 10.4 mph - N/A   Clear
3:53 PM 64.0 °F 28.0 °F 26% 29.86 in 10.0 mi West 5.8 mph - N/A   Scattered Clouds
4:53 PM 64.0 °F 30.9 °F 29% 29.88 in 10.0 mi WSW 4.6 mph - N/A   Scattered Clouds
5:53 PM 61.0 °F 36.0 °F 39% 29.91 in 10.0 mi WSW 3.5 mph - N/A   Mostly Cloudy
6:53 PM 60.1 °F 35.1 °F 39% 29.92 in 10.0 mi West 4.6 mph - N/A   Clear
7:53 PM 59.0 °F 33.1 °F 38% 29.96 in 10.0 mi SW 3.5 mph - N/A   Scattered Clouds
8:53 PM 57.0 °F 39.0 °F 51% 29.99 in 10.0 mi Calm Calm - N/A   Clear
9:53 PM 55.9 °F 41.0 °F 57% 30.00 in 10.0 mi Calm Calm - N/A   Clear
10:53 PM 54.0 °F 44.1 °F 69% 30.01 in 10.0 mi Calm Calm - N/A   Clear
11:53 PM 54.0 °F 42.1 °F 64% 30.01 in 10.0 mi NNW 4.6 mph - 0.00 in   Overcast